TimeEDT,TemperatureF,Dew PointF,Humidity,Sea Level PressureIn,VisibilityMPH,Wind Direction,Wind SpeedMPH,Gust SpeedMPH,PrecipitationIn,Events,Conditions,WindDirDegrees,DateUTC
12:15 AM,36.5,32.9,87,30.10,10.0,Calm,Calm,-,N/A,,Clear,0,2013-04-06 04:15:00
12:35 AM,35.1,32.0,89,30.11,10.0,Calm,Calm,-,N/A,,Clear,0,2013-04-06 04:35:00
12:55 AM,34.5,32.0,90,30.12,10.0,Calm,Calm,-,N/A,,Clear,0,2013-04-06 04:55:00
1:15 AM,33.8,31.5,91,30.12,10.0,Calm,Calm,-,N/A,,Clear,0,2013-04-06 05:15:00
1:35 AM,34.2,32.0,92,30.12,10.0,Calm,Calm,-,N/A,,Clear,0,2013-04-06 05:35:00
1:55 AM,33.3,31.6,94,30.12,10.0,Calm,Calm,-,N/A,,Clear,0,2013-04-06 05:55:00
2:15 AM,32.4,30.9,94,30.12,10.0,Calm,Calm,-,N/A,,Clear,0,2013-04-06 06:15:00
2:35 AM,32.0,30.0,92,30.13,10.0,Calm,Calm,-,N/A,,Clear,0,2013-04-06 06:35:00
2:55 AM,32.4,30.9,94,30.12,10.0,Calm,Calm,-,N/A,,Clear,0,2013-04-06 06:55:00
3:15 AM,31.8,30.0,93,30.13,10.0,Calm,Calm,-,N/A,,Clear,0,2013-04-06 07:15:00
3:35 AM,31.5,29.8,94,30.13,10.0,Calm,Calm,-,N/A,,Clear,0,2013-04-06 07:35:00
3:55 AM,31.5,30.0,94,30.13,10.0,Calm,Calm,-,N/A,,Clear,0,2013-04-06 07:55:00
4:15 AM,30.4,28.9,94,30.13,10.0,Calm,Calm,-,N/A,,Clear,0,2013-04-06 08:15:00
4:35 AM,30.0,28.6,94,30.14,10.0,Calm,Calm,-,N/A,,Clear,0,2013-04-06 08:35:00
4:55 AM,30.6,29.1,94,30.14,7.0,Calm,Calm,-,N/A,,Clear,0,2013-04-06 08:55:00
5:15 AM,29.8,28.4,94,30.14,10.0,Calm,Calm,-,N/A,,Clear,0,2013-04-06 09:15:00
5:35 AM,29.3,28.0,95,30.14,10.0,Calm,Calm,-,N/A,,Clear,0,2013-04-06 09:35:00
5:55 AM,29.5,28.2,95,30.15,10.0,Calm,Calm,-,N/A,,Clear,0,2013-04-06 09:55:00
6:15 AM,28.8,27.3,94,30.17,10.0,Calm,Calm,-,N/A,,Clear,0,2013-04-06 10:15:00
6:35 AM,28.8,27.3,94,30.18,7.0,Calm,Calm,-,N/A,,Clear,0,2013-04-06 10:35:00
6:55 AM,28.4,27.1,95,30.18,7.0,Calm,Calm,-,N/A,,Clear,0,2013-04-06 10:55:00
7:15 AM,28.2,27.0,95,30.19,10.0,Calm,Calm,-,N/A,,Clear,0,2013-04-06 11:15:00
7:35 AM,28.9,27.5,94,30.20,10.0,Calm,Calm,-,N/A,,Clear,0,2013-04-06 11:35:00
7:55 AM,29.3,28.2,96,30.21,10.0,Calm,Calm,-,N/A,,Clear,0,2013-04-06 11:55:00
8:15 AM,31.3,30.0,95,30.21,10.0,Calm,Calm,-,N/A,,Clear,0,2013-04-06 12:15:00
8:35 AM,32.5,31.5,96,30.22,10.0,Calm,Calm,-,N/A,,Clear,0,2013-04-06 12:35:00
8:55 AM,35.6,32.9,90,30.22,10.0,Calm,Calm,-,N/A,,Clear,0,2013-04-06 12:55:00
9:15 AM,38.7,34.0,83,30.22,10.0,Calm,Calm,-,N/A,,Clear,0,2013-04-06 13:15:00
9:35 AM,41.4,34.5,77,30.22,10.0,Calm,Calm,-,N/A,,Clear,0,2013-04-06 13:35:00
9:55 AM,44.2,36.0,73,30.22,10.0,Calm,Calm,-,N/A,,Clear,0,2013-04-06 13:55:00
10:15 AM,46.4,34.5,63,30.22,10.0,Calm,Calm,-,N/A,,Clear,0,2013-04-06 14:15:00
10:35 AM,48.9,34.5,58,30.22,10.0,Calm,Calm,-,N/A,,Clear,0,2013-04-06 14:35:00
10:55 AM,51.3,33.3,50,30.21,10.0,Calm,Calm,-,N/A,,Clear,0,2013-04-06 14:55:00
11:15 AM,54.0,32.4,44,30.21,10.0,Calm,Calm,-,N/A,,Clear,0,2013-04-06 15:15:00
11:35 AM,57.2,33.4,41,30.21,10.0,NE,5.8,-,N/A,,Clear,50,2013-04-06 15:35:00
11:55 AM,59.9,30.4,33,30.20,10.0,South,4.6,-,N/A,,Clear,170,2013-04-06 15:55:00
12:15 PM,61.2,25.0,25,30.20,10.0,SE,6.9,-,N/A,,Clear,140,2013-04-06 16:15:00
12:35 PM,62.1,25.5,25,30.19,10.0,SW,6.9,-,N/A,,Clear,220,2013-04-06 16:35:00
12:55 PM,64.0,27.3,25,30.18,10.0,Calm,Calm,-,N/A,,Clear,0,2013-04-06 16:55:00
1:15 PM,64.2,25.3,23,30.18,10.0,East,5.8,-,N/A,,Clear,80,2013-04-06 17:15:00
1:35 PM,65.3,25.9,23,30.17,10.0,ESE,4.6,-,N/A,,Clear,120,2013-04-06 17:35:00
1:55 PM,65.5,23.7,21,30.16,10.0,ESE,5.8,-,N/A,,Clear,120,2013-04-06 17:55:00
2:15 PM,66.2,26.1,22,30.16,10.0,SE,4.6,-,N/A,,Clear,140,2013-04-06 18:15:00
2:35 PM,66.9,27.1,22,30.14,10.0,SSE,4.6,-,N/A,,Clear,160,2013-04-06 18:35:00
2:55 PM,66.9,25.0,21,30.13,10.0,South,5.8,-,N/A,,Clear,180,2013-04-06 18:55:00
3:15 PM,67.5,25.9,21,30.13,10.0,SSW,6.9,-,N/A,,Clear,200,2013-04-06 19:15:00
3:35 PM,67.1,24.6,20,30.12,10.0,SE,5.8,-,N/A,,Clear,140,2013-04-06 19:35:00
3:55 PM,66.6,25.7,21,30.12,10.0,South,10.4,16.1,N/A,,Clear,170,2013-04-06 19:55:00
4:15 PM,66.9,25.5,21,30.11,10.0,South,8.1,-,N/A,,Clear,170,2013-04-06 20:15:00
4:35 PM,66.6,25.2,21,30.11,10.0,South,5.8,-,N/A,,Clear,170,2013-04-06 20:35:00
4:55 PM,65.8,25.3,22,30.11,10.0,SSE,6.9,-,N/A,,Clear,150,2013-04-06 20:55:00
5:15 PM,65.8,26.6,23,30.11,10.0,SSE,8.1,-,N/A,,Clear,160,2013-04-06 21:15:00
5:35 PM,66.0,27.1,23,30.12,10.0,South,8.1,-,N/A,,Clear,180,2013-04-06 21:35:00
5:55 PM,64.8,26.6,24,30.12,10.0,SSE,6.9,-,N/A,,Clear,150,2013-04-06 21:55:00
6:15 PM,65.1,26.4,23,30.13,10.0,South,4.6,-,N/A,,Clear,180,2013-04-06 22:15:00
6:35 PM,64.4,25.7,23,30.13,10.0,SE,8.1,-,N/A,,Clear,140,2013-04-06 22:35:00
6:55 PM,63.7,26.1,24,30.13,10.0,SSE,5.8,-,N/A,,Clear,150,2013-04-06 22:55:00
7:15 PM,62.4,26.4,26,30.14,10.0,SSE,4.6,-,N/A,,Clear,160,2013-04-06 23:15:00
7:35 PM,61.3,27.0,27,30.14,10.0,SSE,5.8,-,N/A,,Clear,150,2013-04-06 23:35:00
7:55 PM,60.6,26.4,27,30.14,10.0,SSE,3.5,-,N/A,,Clear,150,2013-04-06 23:55:00
8:15 PM,59.2,28.4,31,30.14,10.0,Calm,Calm,-,N/A,,Clear,0,2013-04-07 00:15:00
8:35 PM,53.4,33.3,46,30.14,10.0,Calm,Calm,-,N/A,,Clear,0,2013-04-07 00:35:00
8:55 PM,50.9,34.3,53,30.15,10.0,Calm,Calm,-,N/A,,Clear,0,2013-04-07 00:55:00
9:15 PM,48.4,35.1,60,30.15,10.0,Calm,Calm,-,N/A,,Clear,0,2013-04-07 01:15:00
9:35 PM,46.8,36.0,66,30.16,10.0,Calm,Calm,-,N/A,,Clear,0,2013-04-07 01:35:00
9:55 PM,46.6,36.1,67,30.16,10.0,Calm,Calm,-,N/A,,Clear,0,2013-04-07 01:55:00
10:15 PM,46.0,37.0,71,30.17,10.0,Calm,Calm,-,N/A,,Clear,0,2013-04-07 02:15:00
10:35 PM,43.2,36.0,76,30.17,10.0,Calm,Calm,-,N/A,,Clear,0,2013-04-07 02:35:00
10:55 PM,43.3,36.1,76,30.18,10.0,Calm,Calm,-,N/A,,Clear,0,2013-04-07 02:55:00
11:15 PM,43.5,36.0,75,30.18,10.0,Calm,Calm,-,N/A,,Clear,0,2013-04-07 03:15:00
11:35 PM,41.7,35.4,78,30.18,10.0,Calm,Calm,-,N/A,,Clear,0,2013-04-07 03:35:00
11:55 PM,40.8,36.5,85,30.18,10.0,ENE,4.6,-,N/A,,Clear,60,2013-04-07 03:55:00